Flag for USA

Past Weather in Stamford, Connecticut, USA — Yesterday and Last 2 Weeks

Now
74 °F

Sunny.


Feels Like: 75 °F
Forecast: 82 / 70 °F
Wind: 3 mph from West

Location: Westchester County Airport

Current Time: Jul 13, 2020 at 8:49:42 am

Latest Report: Jul 13, 2020 at 7:56 am


Visibility: 10 mi

Pressure: 29.77 "Hg

Humidity: 76%

Dew Point: 66 °F

Location of StamfordLocation

Past Weather in Stamford — Graph

°F

Stamford Temperature Yesterday

Maximum temperature yesterday: 86 °F (at 4:56 pm)
Minimum temperature yesterday: 69 °F (at 3:56 am)
Average temperature yesterday: 77 °F

High & Low Weather Summary for the Past Weeks

 TemperatureHumidityPressure
High90 °F (Jul 2, 3:56 pm)100% (Jul 7, 10:09 pm)30.14 "Hg (Jul 7, 10:09 pm)
Low63 °F (Jun 30, 5:56 am)29% (Jul 5, 3:56 pm)29.61 "Hg (Jul 11, 5:56 pm)
Average74 °F78%29.87 "Hg
* Reported Jun 28 6:56 am — Jul 13 6:56 am, Stamford. Weather by CustomWeather, © 2020

Note: Actual official high and low records may vary slightly from our data, if they occured in-between our weather recording intervals... More about our weather records

Stamford Weather History for the Previous 24 Hours

Scroll right to see more
 ConditionsComfort  
Time TempWeatherWind HumidityBarometerVisibility
6:56 am
Mon, Jul 13
71 °FSunny.3 mph84%29.76 "Hg10 mi
5:56 am69 °FPartly sunny.No wind87%29.76 "Hg10 mi
4:56 am70 °FPassing clouds.3 mph87%29.74 "Hg10 mi
3:56 am70 °FPassing clouds.5 mph84%29.73 "Hg10 mi
2:56 am71 °FLight rain. Passing clouds.3 mph78%29.75 "Hg10 mi
1:56 am73 °FPassing clouds.3 mph71%29.75 "Hg10 mi
12:56 am73 °FPassing clouds.3 mph74%29.76 "Hg10 mi
11:56 pm
Sun, Jul 12
74 °FPassing clouds.3 mph69%29.76 "Hg10 mi
10:56 pm76 °FOvercast.6 mph64%29.76 "Hg10 mi
9:56 pm78 °FPassing clouds.6 mph58%29.74 "Hg10 mi
8:56 pm80 °FPassing clouds.12 mph51%29.72 "Hg10 mi
7:56 pm81 °FScattered clouds.3 mph47%29.71 "Hg10 mi
6:56 pm84 °FSunny.5 mph43%29.69 "Hg10 mi
5:56 pm85 °FSunny.10 mph40%29.68 "Hg10 mi
4:56 pm86 °FScattered clouds.9 mph43%29.69 "Hg10 mi
3:56 pm83 °FScattered clouds.6 mph50%29.69 "Hg10 mi
2:56 pm84 °FBroken clouds.3 mph49%29.70 "Hg10 mi
1:56 pm83 °FScattered clouds.6 mph55%29.70 "Hg10 mi
12:56 pm82 °FScattered clouds.7 mph55%29.71 "Hg10 mi
11:56 am80 °FPartly sunny.10 mph58%29.72 "Hg10 mi
10:56 am79 °FScattered clouds.13 mph58%29.72 "Hg10 mi
9:56 am77 °FScattered clouds.13 mph64%29.72 "Hg10 mi
8:56 am74 °FPassing clouds.8 mph71%29.70 "Hg10 mi
Weather by CustomWeather, © 2020

See weather overview